Regional Weather Roundup
Issued by NWS Cleveland, OH

Home | Current Version | Previous Version | Graphics & Text | Print | Product List | Glossary On
Versions: 1 2 3 4 5 6 7 8 9 10 11 12 13 14 15 16 17 18 19 20 21 22 23 24 25 26 27 28 29 30 31 32 33 34 35 36 37 38 39 40 41 42 43 44 45 46 47 48 49 50
000
ASUS41 KCLE 030902
RWRCLE
OHIO REGIONAL WEATHER ROUNDUP
NATIONAL WEATHER SERVICE CLEVELAND, OH
500 AM EDT MON AUG 03 2015

NOTE: "FAIR" INDICATES FEW OR NO CLOUDS BELOW 12,000 FEET WITH NO
SIGNIFICANT WEATHER AND/OR OBSTRUCTIONS TO VISIBILITY.

OHZ001>008-015>018-024>027-034-035-043-044-031000-
   NORTHWEST OHIO

CITY           SKY/WX    TMP DP  RH WIND       PRES   REMARKS
DEFIANCE       CLOUDY    64  61  90 W5        29.80R
FINDLAY        LGT RAIN  64  61  90 SE22      29.74F
TOLEDO EXPRESS CLOUDY    63  61  93 W7        29.77R
TOLEDO EXEC    CLOUDY    64  60  87 S17G26    29.75F THUNDER
LIMA           RAIN      62  62 100 SE22G30   29.81F FOG
$$

OHZ009>014-019>023-028>033-038-089-031000-
   NORTHEAST OHIO

CITY           SKY/WX    TMP DP  RH WIND       PRES   REMARKS
CLE-HOPKINS    LGT RAIN  63  61  93 SW9       29.86F
CLE-LAKEFRONT  CLOUDY    65  61  87 S9        29.82F
CUY CO. ARPT   NOT AVBL
LORAIN-ELYRIA  LGT RAIN  62  60  93 SW10      29.87F
ASHTABULA      CLOUDY    64  61  90 S9        29.80F
AKRON-CANTON   CLOUDY    66  57  72 W7        29.90R
WOOSTER        LGT RAIN  63  59  87 W6        29.91S
MANSFIELD      LGT RAIN  61  61 100 SW5       29.94R
YOUNGSTOWN     CLOUDY    63  59  87 S5        29.85F
$$

OHZ042-051>053-060>062-070>072-077>081-031000-
  SOUTHWEST OHIO

CITY           SKY/WX    TMP DP  RH WIND       PRES   REMARKS
CINC-COVINGTON PTCLDY    69  61  75 S8        29.86F
CINC-LUNKEN    CLEAR     64  63  96 NE6       29.87S
HAMILTON       LGT RAIN  70  59  68 NE15G31   29.93R
DAYTON         TSTM      62  62 100 NE12      29.95F FOG
WRIGHT-PAT AFB TSTM      63  63 100 NE8       29.94F
DAYTON GENERAL TSTM      64  59  82 N17G36    29.94R
WILMINGTON     LGT RAIN  66  58  75 N22G38    29.97R
$$

OHZ036-037-039>041-045>050-054>059-063>069-073>076-082>088-031000-
  CENTRAL AND SOUTHEAST OHIO

CITY           SKY/WX    TMP DP  RH WIND       PRES   REMARKS
COLUMBUS       LGT RAIN  67  59  75 N16G26    29.95R
OSU AIRPORT    RAIN      64  60  87 N8        29.96R FOG
BOLTON FIELD   NOT AVBL
RICKENBACK AFB CLOUDY    68  60  74 N21G31    29.95R
NEWARK         CLOUDY    71  57  61 N13G25    29.93R
MARION         RAIN      62  60  93 S5        29.95R FOG
LANCASTER      MOCLDY    71  61  70 NW16G26   29.93R
ZANESVILLE     MOCLDY    69  59  70 N3        29.92R
NEW PHILLY     CLOUDY    67  59  75 VRB3      29.91R
$$



USA.gov is the U.S. government's official web portal to all federal, state and local government web resources and services.